This is the latest recevied weather packets stored in our database for station/object EA1IOK-1. If no packets are shown the sender has not sent any weather packets the latest 10 day(s).
| Time | Temp. | Humidity | Pressure | Rain* | Wind** | Luminosity | Snow |
|---|---|---|---|---|---|---|---|
| 1777713746 | 19.44° C | 100% | 1014.6 hPa | - | - | - | - |
| 1777712845 | 20° C | 100% | 1014.7 hPa | - | - | - | - |
| 1777711943 | 19.44° C | 100% | 1014.8 hPa | - | - | - | - |
| 1777711042 | 18.33° C | 100% | 1014.8 hPa | - | - | - | - |
| 1777710142 | 19.44° C | 100% | 1014.8 hPa | - | - | - | - |
| 1777709241 | 18.33° C | 100% | 1014.8 hPa | - | - | - | - |
| 1777708340 | 20° C | 100% | 1015 hPa | - | - | - | - |
| 1777707439 | 16.67° C | 100% | 1014.8 hPa | - | - | - | - |
| 1777706539 | 16.67° C | 100% | 1014.8 hPa | - | - | - | - |
| 1777705639 | 16.11° C | 100% | 1014.8 hPa | - | - | - | - |
| 1777704812 | 17.22° C | 100% | 1014.8 hPa | - | - | - | - |
| 1777704738 | 17.22° C | 100% | 1014.8 hPa | - | - | - | - |
| 1777703838 | 13.33° C | 100% | 1014.8 hPa | - | - | - | - |
| 1777702937 | 11.11° C | 100% | 1014.8 hPa | - | - | - | - |
| 1777702036 | 11.11° C | 100% | 1014.6 hPa | - | - | - | - |
| 1777701136 | 10.56° C | 100% | 1014.7 hPa | - | - | - | - |
| 1777700235 | 11.11° C | 100% | 1014.5 hPa | - | - | - | - |
| 1777699334 | 10.56° C | 100% | 1014.5 hPa | - | - | - | - |
| 1777698434 | 11.11° C | 100% | 1014.6 hPa | - | - | - | - |
| 1777697533 | 11.11° C | 100% | 1014.6 hPa | - | - | - | - |
| 1777696633 | 11.11° C | 100% | 1014.6 hPa | - | - | - | - |
| 1777695732 | 11.11° C | 100% | 1014.5 hPa | - | - | - | - |
| 1777694831 | 11.11° C | 100% | 1014.7 hPa | - | - | - | - |
| 1777693930 | 11.11° C | 100% | 1014.6 hPa | - | - | - | - |
| 1777693029 | 11.67° C | 100% | 1014.7 hPa | - | - | - | - |
* Rain since midnight (hover to see other rain measurements)
** Current wind speed in m/s (hover to see current wind gust speed)